TimeMDT,TemperatureF,Dew PointF,Humidity,Sea Level PressureIn,VisibilityMPH,Wind Direction,Wind SpeedMPH,Gust SpeedMPH,PrecipitationIn,Events,Conditions,WindDirDegrees,DateUTC
12:53 AM,54.0,26.1,34,29.91,10.0,WSW,4.6,-,N/A,,Clear,240,2012-10-02 06:53:00
1:53 AM,53.1,27.0,37,29.89,10.0,Calm,Calm,-,N/A,,Clear,0,2012-10-02 07:53:00
2:53 AM,51.1,27.0,39,29.89,10.0,WNW,4.6,-,N/A,,Clear,290,2012-10-02 08:53:00
3:53 AM,46.0,26.1,46,29.89,10.0,NE,5.8,-,N/A,,Clear,40,2012-10-02 09:53:00
4:53 AM,46.9,27.0,46,29.88,10.0,Calm,Calm,-,N/A,,Clear,0,2012-10-02 10:53:00
5:53 AM,46.9,26.1,44,29.88,10.0,NW,4.6,-,N/A,,Clear,310,2012-10-02 11:53:00
6:53 AM,51.1,24.1,35,29.86,10.0,ESE,3.5,-,N/A,,Clear,110,2012-10-02 12:53:00
7:53 AM,48.9,24.1,38,29.88,10.0,NNW,3.5,-,N/A,,Clear,330,2012-10-02 13:53:00
8:53 AM,59.0,24.1,26,29.85,10.0,West,5.8,-,N/A,,Clear,260,2012-10-02 14:53:00
9:53 AM,64.9,26.1,23,29.85,10.0,West,4.6,-,N/A,,Clear,280,2012-10-02 15:53:00
10:53 AM,66.9,26.1,21,29.84,10.0,Calm,Calm,-,N/A,,Clear,0,2012-10-02 16:53:00
11:53 AM,70.0,27.0,20,29.83,10.0,Variable,3.5,-,N/A,,Clear,0,2012-10-02 17:53:00
12:53 PM,73.9,28.0,18,29.77,10.0,ESE,3.5,-,N/A,,Clear,120,2012-10-02 18:53:00
1:53 PM,78.1,24.1,14,29.72,10.0,NNE,6.9,-,N/A,,Clear,20,2012-10-02 19:53:00
2:53 PM,81.0,19.9,10,29.70,10.0,West,9.2,36.8,N/A,,Clear,280,2012-10-02 20:53:00
3:53 PM,80.1,18.0,10,29.70,10.0,West,12.7,21.9,N/A,,Clear,270,2012-10-02 21:53:00
4:53 PM,79.0,16.0,9,29.70,10.0,WNW,18.4,-,N/A,,Clear,290,2012-10-02 22:53:00
5:53 PM,75.9,16.0,10,29.70,10.0,West,21.9,28.8,N/A,,Clear,280,2012-10-02 23:53:00
6:53 PM,71.1,15.1,12,29.72,10.0,West,9.2,-,N/A,,Clear,280,2012-10-03 00:53:00
7:53 PM,66.0,17.1,15,29.75,10.0,West,11.5,-,N/A,,Clear,260,2012-10-03 01:53:00
8:53 PM,64.9,18.0,16,29.72,10.0,SW,11.5,-,N/A,,Clear,230,2012-10-03 02:53:00
9:53 PM,63.0,19.0,18,29.71,10.0,WSW,15.0,-,N/A,,Clear,240,2012-10-03 03:53:00
10:53 PM,61.0,21.0,21,29.72,10.0,SW,5.8,-,N/A,,Clear,220,2012-10-03 04:53:00
11:53 PM,62.1,21.0,21,29.69,10.0,WSW,11.5,-,N/A,,Clear,240,2012-10-03 05:53:00